[[{"header":{"parameterUnit":"m.s-1","parameterCategory":1,"la1":30.2991,"la2":30.254,"lo1":-89.0895,"lo2":-89.0444,"dy":0.0017,"dx":0.0017,"nx":28,"ny":28,"refTime":"2025-06-05T21:00:00:Z","depth":0,"parameterNumber":2,"parameterNumberName":"U-component_of_WINDS"},"data":[0,0,0,0,0,0,0,0,0,0,0,0,0,0,0,0,0,0,0,0,0,0,0,0,0,0,0,0,0,0,0,0,0,0,0,0,0,0,0,0,0,0,0,0,0,0,0,0,0,0,0,0,0,0,0,0,0,0,1.3165,1.3167,0,1.3368,1.3371,1.3373,1.346,1.3459,1.3459,1.3459,1.367,1.3676,1.3682,0,0,0,0,0,0,0,0,0,0,0,0,0,1.2854,1.2859,1.3164,1.3167,1.317,1.3368,1.3371,1.3373,1.346,1.3459,1.3459,1.3458,1.3668,1.3675,1.3682,0,0,0,0,0,0,0,0,0,0,0,0,0,1.3016,1.2861,1.3164,1.3236,1.3245,1.3367,1.3371,1.3374,1.346,1.3459,1.3459,1.3458,1.3666,1.3674,1.3683,1.375,0,0,1.3711,1.3715,0,0,0,0,0,0,0,0,1.3007,1.3028,1.3223,1.3232,1.3241,1.3388,1.3339,1.35,1.346,1.3378,1.3458,1.3458,1.3577,1.3593,1.3633,1.376,1.3769,1.3711,1.3717,1.3721,1.3723,0,0,0,0,0,0,0,1.2996,1.3019,1.3245,1.3226,1.3237,1.326,1.3282,1.337,1.3478,1.3385,1.3392,1.3415,1.3582,1.3624,1.3638,1.3772,1.3711,1.3719,1.3725,1.3728,1.3965,1.3966,0,0,0,0,0,0,1.2972,1.3009,1.3239,1.3251,1.312,1.3266,1.3291,1.3341,1.3478,1.3498,1.3415,1.3418,1.3609,1.3628,1.3646,1.3733,1.3721,1.3729,1.3734,1.3964,1.3965,1.3966,0,0,0,0,0,0,1.2965,1.2992,1.3231,1.3132,1.3164,1.3272,1.3328,1.3346,1.3388,1.35,1.352,1.3438,1.3609,1.3633,1.3723,1.3742,1.3733,1.3741,1.3963,1.3964,1.3966,1.3908,0,0,0,0,0,0,1.2956,1.2988,1.3014,1.3132,1.3169,1.3303,1.3329,1.335,1.3403,1.3409,1.3527,1.3546,1.361,1.3709,1.3732,1.3754,1.3748,1.3962,1.3964,1.3965,1.3909,1.3907,1.3906,0,0,0,0,0,1.2944,1.299,1.3015,1.3042,1.3203,1.3304,1.3325,1.3398,1.3404,1.3431,1.3503,1.3542,1.3736,1.3718,1.3744,1.3769,1.3961,1.3963,1.3965,1.3909,1.3907,1.3906,0,0,0,0,0,0,1.2872,1.3007,1.3036,1.3121,1.32,1.3318,1.3355,1.3394,1.3474,1.3476,1.3564,1.359,1.3672,1.373,1.3707,1.3841,1.3852,1.3859,1.38,1.38,1.3798,1.3783,1.3756,0,0,0,0,0,1.2866,1.2935,1.305,1.3114,1.3152,1.3246,1.3293,1.3342,1.3428,1.3463,1.3541,1.3624,1.3705,1.3755,1.3835,1.3917,1.3945,1.3948,1.3946,1.3944,1.395,1.3999,1.4002,1.3973,1.3973,1.3973,0,0,1.2854,1.2936,1.2975,1.3102,1.3169,1.324,1.3274,1.3348,1.3402,1.3474,1.3564,1.3624,1.3723,1.381,1.3852,1.386,1.3964,1.3947,1.3945,1.3952,1.4001,1.4004,1.4006,1.3974,1.3974,1.3974,0,0,1.2869,1.2938,1.2999,1.3066,1.3167,1.3229,1.3244,1.3357,1.34,1.3491,1.3547,1.3613,1.3748,1.3816,1.3869,1.391,1.3949,1.3934,1.3927,1.3973,1.3975,1.3978,1.3993,1.3998,1.3939,1.3939,1.3939,0,1.2842,1.295,1.3026,1.3097,1.3151,1.3219,1.3283,1.3344,1.3466,1.3503,1.351,1.3682,1.3753,1.3857,1.3867,1.3907,1.3928,1.3921,1.3969,1.3972,1.3976,1.3991,1.3997,1.3936,1.3937,1.3937,1.3937,0,1.2912,1.2987,1.3025,1.314,1.3199,1.3266,1.3352,1.3403,1.3447,1.3509,1.3602,1.3689,1.3788,1.3817,1.3861,1.3927,1.3929,1.3952,1.3964,1.3974,1.3991,1.3997,1.3933,1.3934,1.3934,1.3935,0,0,1.2887,1.3044,1.3056,1.311,1.3227,1.3287,1.3357,1.3453,1.3495,1.3578,1.364,1.3753,1.3774,1.3834,1.3886,1.3927,1.3955,1.3945,1.3948,1.3944,1.4035,1.4017,1.4023,1.3981,1.3983,1.3984,1.4026,0,1.2918,1.3046,1.3117,1.3216,1.3286,1.3352,1.3414,1.3493,1.3553,1.3622,1.3689,1.3768,1.379,1.3826,1.3869,1.3942,1.3974,1.394,1.4041,1.4044,1.4014,1.4031,1.4014,1.4049,1.4033,1.4034,1.4035,0,1.2972,1.3052,1.3158,1.3268,1.33,1.3354,1.3448,1.3513,1.3604,1.3645,1.3711,1.3763,1.3842,1.3848,1.3957,1.3932,1.3978,1.402,1.4023,1.4035,1.404,1.4045,1.4062,1.4068,1.4046,1.4045,1.4044,0,1.2943,1.3078,1.3159,1.3203,1.3333,1.3369,1.3425,1.3516,1.357,1.3652,1.3688,1.3778,1.3828,1.3898,1.3973,1.3971,1.4076,1.4088,1.4113,1.4111,1.4132,1.413,1.4157,1.416,1.416,1.416,1.416,0,1.2971,1.3033,1.3148,1.3198,1.327,1.3351,1.3421,1.3482,1.3562,1.3626,1.3689,1.3748,1.3844,1.3915,1.3974,1.4056,1.4078,1.4114,1.413,1.4109,1.4104,1.414,1.414,1.4162,1.4161,1.4161,1.4161,0,1.2952,1.3031,1.3124,1.3239,1.327,1.3318,1.3417,1.3468,1.3531,1.3611,1.3635,1.3734,1.3821,1.3903,1.402,1.406,1.4142,1.4162,1.4111,1.4119,1.414,1.4137,1.4192,1.4203,1.4197,1.4197,1.4197,0,1.2964,1.3014,1.3134,1.3181,1.3235,1.331,1.3365,1.3447,1.3501,1.3609,1.3648,1.3739,1.3817,1.3952,1.4036,1.4125,1.4148,1.4161,1.4162,1.414,1.4149,1.4145,1.4151,1.4159,1.4159,1.4159,1.4158,0,1.2978,1.3015,1.3091,1.3181,1.3245,1.332,1.3397,1.3432,1.3529,1.3587,1.3676,1.3736,1.3855,1.3945,1.4044,1.4103,1.4147,1.4157,1.4168,1.4148,1.4116,1.4134,1.4107,1.4156,1.4156,1.4156,1.4157,1.4157,1.2976,1.3023,1.3115,1.3198,1.3265,1.3336,1.339,1.346,1.3535,1.3637,1.3682,1.3772,1.3863,1.4001,1.4059,1.4132,1.4142,1.4157,1.4161,1.4164,1.416,1.4104,1.415,1.415,1.4151,1.4151,1.4151,0,1.2994,1.3056,1.3132,1.3238,1.3303,1.3338,1.3426,1.3478,1.3557,1.3638,1.3713,1.3815,1.3903,1.3993,1.4087,1.4127,1.415,1.4149,1.4147,1.416,1.4145,1.4127,1.4129,1.4129,1.4129,1.4129,1.4129,1.4129,1.3011,1.3093,1.3141,1.3257,1.332,1.3408,1.3455,1.3521,1.3586,1.3698,1.3771,1.3829,1.3914,1.4014,1.4097,1.4121,1.4153,1.4146,1.4176,1.416,1.4161,1.4162,1.4146,1.4152,1.4152,1.4186,1.4186,1.4186]},{"header":{"parameterUnit":"m.s-1","parameterCategory":1,"la1":30.2991,"la2":30.254,"lo1":-89.0895,"lo2":-89.0444,"dy":0.0017,"dx":0.0017,"nx":28,"ny":28,"refTime":"2025-06-05T21:00:00:Z","depth":0,"parameterNumber":3,"parameterNumberName":"V-component_of_WINDS"},"data":[0,0,0,0,0,0,0,0,0,0,0,0,0,0,0,0,0,0,0,0,0,0,0,0,0,0,0,0,0,0,0,0,0,0,0,0,0,0,0,0,0,0,0,0,0,0,0,0,0,0,0,0,0,0,0,0,0,0,3.7383,3.7383,0,3.7391,3.7392,3.7392,3.7413,3.7413,3.7414,3.7414,3.7421,3.7421,3.7421,0,0,0,0,0,0,0,0,0,0,0,0,0,3.7382,3.7382,3.7383,3.7383,3.7383,3.7391,3.7392,3.7392,3.7413,3.7413,3.7414,3.7414,3.7421,3.7421,3.7421,0,0,0,0,0,0,0,0,0,0,0,0,0,3.7386,3.7382,3.7383,3.7394,3.7396,3.7391,3.7392,3.7392,3.7413,3.7413,3.7414,3.7415,3.7422,3.7421,3.7421,3.7406,0,0,3.742,3.742,0,0,0,0,0,0,0,0,3.7386,3.7386,3.7393,3.7394,3.7395,3.7402,3.7394,3.7396,3.7412,3.7406,3.7414,3.7415,3.7414,3.7415,3.7415,3.7406,3.7406,3.742,3.742,3.742,3.7419,0,0,0,0,0,0,0,3.7385,3.7386,3.7386,3.7393,3.7394,3.7399,3.74,3.7395,3.7406,3.7407,3.7408,3.7409,3.7415,3.7415,3.7415,3.7406,3.742,3.742,3.7419,3.7419,3.7385,3.7384,0,0,0,0,0,0,3.7384,3.7385,3.7386,3.7386,3.7392,3.7398,3.74,3.7399,3.7406,3.7408,3.7409,3.741,3.7415,3.7415,3.7415,3.7398,3.742,3.7419,3.7419,3.7386,3.7385,3.7384,0,0,0,0,0,0,3.7384,3.7384,3.7385,3.7386,3.7387,3.7398,3.7396,3.7399,3.7399,3.7408,3.741,3.7406,3.7416,3.7416,3.7408,3.7398,3.7419,3.7419,3.7387,3.7386,3.7385,3.7362,0,0,0,0,0,0,3.7384,3.7383,3.7378,3.7386,3.7387,3.7378,3.7396,3.7398,3.7398,3.74,3.7406,3.7408,3.7416,3.7408,3.7408,3.7398,3.7419,3.7388,3.7386,3.7385,3.7364,3.736,3.7357,0,0,0,0,0,3.7384,3.7371,3.7378,3.7378,3.738,3.7378,3.7378,3.7388,3.7397,3.7392,3.7398,3.7408,3.74,3.7407,3.7407,3.7397,3.7388,3.7387,3.7385,3.7365,3.7361,3.7358,0,0,0,0,0,0,3.7361,3.7372,3.738,3.7369,3.7372,3.7381,3.7374,3.7384,3.7384,3.7385,3.7398,3.7399,3.7389,3.7392,3.7401,3.7382,3.7396,3.7394,3.7381,3.7377,3.7374,3.7373,3.7418,0,0,0,0,0,3.7355,3.7352,3.7362,3.7352,3.7353,3.7363,3.7363,3.737,3.7374,3.7375,3.738,3.7383,3.7381,3.7379,3.7378,3.7365,3.7366,3.7358,3.7354,3.7352,3.735,3.7343,3.7339,3.7379,3.7379,3.7379,0,0,3.7342,3.7348,3.7345,3.7347,3.7351,3.7347,3.7364,3.736,3.7357,3.7374,3.7367,3.7371,3.7375,3.7364,3.736,3.7366,3.7339,3.735,3.7348,3.7347,3.7341,3.7337,3.7334,3.7378,3.7378,3.7378,0,0,3.7316,3.7321,3.7313,3.7316,3.7321,3.7328,3.7326,3.7334,3.7337,3.733,3.7343,3.734,3.7336,3.7338,3.7339,3.7314,3.7324,3.7314,3.7297,3.729,3.7287,3.7284,3.7275,3.7272,3.7312,3.7312,3.7312,0,3.7299,3.7295,3.7307,3.7302,3.7303,3.7319,3.7311,3.7313,3.7317,3.7317,3.7324,3.732,3.7324,3.7314,3.7308,3.7308,3.7306,3.7313,3.7287,3.7284,3.7282,3.7273,3.727,3.7311,3.7311,3.7311,3.7311,0,3.7274,3.7271,3.7264,3.7268,3.7268,3.7261,3.7272,3.727,3.7278,3.7284,3.7277,3.7282,3.7282,3.728,3.7287,3.7271,3.7275,3.7285,3.7298,3.7276,3.7269,3.7265,3.7309,3.7309,3.731,3.731,0,0,3.7233,3.7245,3.7242,3.7244,3.7251,3.7249,3.7243,3.7243,3.7242,3.7244,3.7239,3.7236,3.7245,3.7245,3.7253,3.7247,3.7227,3.7257,3.7258,3.7251,3.7209,3.7201,3.7197,3.7234,3.7233,3.7233,3.7208,0,3.7209,3.72,3.7211,3.7199,3.7197,3.7212,3.7207,3.721,3.7216,3.7214,3.722,3.7217,3.723,3.723,3.7225,3.7231,3.7219,3.7233,3.7228,3.7228,3.7226,3.7193,3.7185,3.7162,3.7206,3.7205,3.7205,0,3.7179,3.7181,3.7169,3.7177,3.7176,3.7172,3.7173,3.7171,3.7175,3.718,3.7181,3.719,3.7185,3.7198,3.719,3.7199,3.7198,3.7201,3.72,3.72,3.7215,3.7191,3.7155,3.7151,3.72,3.72,3.7201,0,3.7151,3.715,3.7143,3.7144,3.7153,3.7149,3.7153,3.7158,3.7158,3.7159,3.7159,3.7159,3.7159,3.7159,3.7168,3.7177,3.7158,3.7173,3.7162,3.7161,3.7156,3.7156,3.7119,3.7157,3.7157,3.7157,3.7157,0,3.7122,3.7114,3.713,3.7125,3.7117,3.713,3.7121,3.7126,3.713,3.7126,3.714,3.7136,3.7149,3.7146,3.7154,3.7146,3.7146,3.7149,3.7151,3.7147,3.7147,3.7146,3.7148,3.7156,3.7156,3.7156,3.7156,0,3.7088,3.7098,3.7091,3.7101,3.7103,3.7096,3.7104,3.71,3.7107,3.7103,3.7102,3.7113,3.711,3.712,3.7119,3.7124,3.7112,3.7117,3.7111,3.7112,3.71,3.7101,3.706,3.7055,3.7097,3.7096,3.7096,0,3.7068,3.7063,3.7072,3.7071,3.7074,3.7072,3.7072,3.7084,3.7084,3.7088,3.7084,3.7083,3.7082,3.7078,3.7085,3.7085,3.7089,3.7075,3.7089,3.7086,3.7088,3.7088,3.7088,3.7072,3.7071,3.7071,3.7071,0,3.7033,3.7039,3.7038,3.704,3.704,3.7041,3.7044,3.7042,3.7056,3.7054,3.7052,3.7052,3.7052,3.7051,3.7052,3.7055,3.7065,3.7066,3.7064,3.706,3.7056,3.7057,3.7102,3.7067,3.7067,3.7068,3.7068,3.7068,3.7005,3.7001,3.7007,3.7006,3.701,3.7012,3.7009,3.7016,3.7015,3.7016,3.7023,3.702,3.7024,3.7027,3.7029,3.7026,3.7033,3.7029,3.7028,3.7026,3.7024,3.7057,3.7026,3.7027,3.7027,3.7027,3.7027,0,3.697,3.6975,3.6974,3.6978,3.6977,3.6988,3.6991,3.699,3.6987,3.6991,3.699,3.6988,3.6987,3.6995,3.6994,3.6991,3.6995,3.699,3.699,3.6991,3.7019,3.7021,3.6986,3.6986,3.6986,3.6986,3.6986,3.6986,3.6952,3.6945,3.6951,3.6946,3.6951,3.6949,3.695,3.6952,3.6955,3.6952,3.6951,3.6956,3.6961,3.6962,3.6961,3.6963,3.6962,3.6956,3.6959,3.6985,3.6989,3.6992,3.6995,3.6955,3.6955,3.6931,3.6931,3.6931]}]]